Погода Новый Торьял

Погода Новый Торьял : погода сейчас, прогноз погоды и архив. Всё, что Вы хотите узнать о погоде Новый Торьял!

Поиск расширенной информации на нашем сайте:

Другие новости

Новости СМИ2

Главная страница сайта

Новости сайта

03.07.2017

Напоминаем, что на нашем специализированном сайте Метеоцентр.Азия вы можете получить высокодетализированные автоматические прогнозы погоды по пунктам России, СНГ и мира в авиационном формате (включающие направление и скорость ветра, видимость, явления погоды, количество и форму облачности, нижнюю и верхнюю границу облачности).

Рекомендуем: медаль за отвагу фото гитлер награжден медалью за отвагу.

Погода Новый Торьял - сегодня

Время (UTC), дата Ветер
(°,м/с) 
Видим.   Явления Облачность Т
(°С)
Тd
(°С)
f(%) Тe
(°С)
Pmin
(гПа)
dP
(гПа)
Po
(мм)
O2
(г/м3)
Тmin Tmax R s Состояние
почвы
18 12.12.17 150 (ЮВ) 3-5{07}  20000 м  позёмок{ливн. осадки}  10/10 300 м кучево-дожд. 
[Cb calv]
-3.2 -4.7 89 -5  1024.5  -0.2  755  308           
21 12.12.17 140 (ЮВ) 4-7{07}  20000 м  позёмок  10/10 300 м кучево-дожд. 
[Cb calv]
-2.9 -4.6 88 -6  1024.3  -0.2  755  308           
00 13.12.17 150 (ЮВ) 4-7{08}  20000 м  позёмок  10/10 300 м кучево-дожд. 
[Cb calv]
-2.8 -4.1 91 -6  1023.6  -0.7  754  307           
03 13.12.17 160 (Ю) 7-10{11}  20000 м  позёмок  10/10 300 м кучево-дожд. 
[Cb calv]
-2.5 -3.8 91 -7  1023.1  -0.5  754  307  -3.4      12  равномерный
сухой снег
100% 
06 13.12.17 160 (Ю) 4-7{11}  20000 м  позёмок  10/10 600 м 
[Sc]
-2.6 -4.2 89 -5  1022.9  -0.2  753  307           
09 13.12.17 170 (Ю) 6-8{10}  14000 м  позёмок  10/10 600 м кучево-дожд. 
[Cb calv]
-2.7 -3.7 93 -7  1022.3  -0.6  753  307           
12 13.12.17 170 (Ю) 6-9{12}  4100 м  слаб. ливневой снег  10/10 300 м кучево-дожд. 
[Cb cap]
-2.6 -4.2 89 -7  1019.5  -2.7  751  306           
15 13.12.17 180 (Ю) 8-12{13}  10 км  позёмок{ливн. осадки}  10/10 300 м кучево-дожд. 
[Cb calv]
-2.5 -4.4 87 -7  1018.7  -0.8  750  306    -2.3  0.6     
18 13.12.17 190 (Ю) 9-13{15}  10 км  слаб. ливневой дождь [диам. гололёда 2 мм]  10/10 300 м кучево-дожд. 
[Cb cap]
-2.1 -3 94 -7  1017.4  -1.3  749  305           
21 13.12.17 200 (Ю) 7-10{15}  20000 м  {ливн. осадки} [диам. гололёда 3 мм]  10/10 300 м кучево-дожд. 
[Cb calv]
-0.8 -1.8 93 -5  1017.1  -0.2  749  303           
00 14.12.17 190 (Ю) 6-9{11}  4000 м  слаб. ливневой снег  10/10 300 м кучево-дожд. 
[Cb cap]
-0.6 -1.5 94 -4  1017.7  0.6  750  303           
03 14.12.17 180 (Ю) 4-5{09}  4000 м  слаб. ливневой снег  10/10 300 м кучево-дожд. 
[Cb cap]
-0.7 -1.7 93 -3  1018.9  1.2  751  303  -2.5    14  равномерный
сухой снег
100% 
06 14.12.17 170 (Ю) 4-7{08}  20000 м  позёмок{ливн. осадки}  10/10 300 м кучево-дожд. 
[Cb cap]
-0.8 -2.1 91 -3  1019.1  0.2  751  304           
09 14.12.17 180 (Ю) 7-9{11}  11000 м  слаб. ливневой снег  10/10 300 м кучево-дожд. 
[Cb cap]
-0.3 -1.5 92 -4  1018.6  -0.5  750  303           
12 14.12.17 180 (Ю) 8-12{12}  27000 м  слаб. ливневой дождь  10/10 300 м кучево-дожд. 
[Cb cap]
+0.7 -0.4 92 -3  1017.9  -0.5  750  301           
15 14.12.17 190 (Ю) 9-12{14}  20000 м  {ливн. осадки}  10/10 300 м кучево-дожд. 
[Cb calv]
+0.9 +0.1 94 -3  1018.4  0.5  750  301    +0.9     
18 14.12.17 200 (Ю) 8-12{14}  20000 м  {ливн. осадки}  10/10 300 м кучево-дожд. 
[Cb calv]
+0.7 -0.4 92 -3  1019.3  0.9  751  302           
21 14.12.17 190 (Ю) 8-14{14}  20000 м    10/10 300 м кучево-дожд. 
[Cb calv]
-1 -3.9 81 -5  1020  0.5  751  304           
00 15.12.17 190 (Ю) 7-11{14}  20000 м    10/10 300 м кучево-дожд. 
[Cb calv]
-4.1 -7.9 75 -9  1020.7  0.5  752  308           
03 15.12.17 180 (Ю) 9-12{14}  20000 м    10/10 600 м 
[Sc]
-5.2 -8.9 75 -11  1020.3  -0.4  752  310  -5.2      12  равномерный
сухой снег
100% 
06 15.12.17 190 (Ю) 6-9{14}  20000 м  {ливн. осадки}  10/10 300 м кучево-дожд. 
[Cb calv]
-5.5 -8.1 82 -10  1021.9  1.3  752  310  -5.5         
09 15.12.17 190 (Ю) 7-10{11}  5000 м  слаб. ливневой снег  10/10 300 м кучево-дожд. 
[Cb cap]
-5.3 -7.4 85 -10  1022.4  0.7  753  310           
12 15.12.17 180 (Ю) 7-10{12}  7000 м  слаб. ливневой снег  10/10 300 м кучево-дожд. 
[Cb cap]
-5.2 -8.1 80 -10  1023  0.6  753  310           
15 15.12.17 180 (Ю) 7-10{11}  4000 м  слаб. ливневой снег  10/10 300 м кучево-дожд. 
[Cb cap]
-5.2 -7.7 83 -10  1023.9  0.8  754  311    -5.2     
18 15.12.17 190 (Ю) 6-10{11}  20000 м  позёмок{ливн. осадки}  10/10 300 м кучево-дожд. 
[Cb calv]
-5.3 -7.4 85 -10  1025.1  1.3  755  311           
Время (UTC), дата Ветер
(°,м/с) 
Видим.   Явления Облачность Т
(°С)
Тd
(°С)
f(%) Тe
(°С)
Pmin
(гПа)
dP
(гПа)
Po
(мм)
O2
(г/м3)
Тmin Tmax R s Состояние
почвы

Для получения пояснительной информации подведите курсор к названию столбца.

ПОГОДА Новый Торьял - архив

Всё, что Вы хотите узнать о погоде Новый Торьял - удобно и подробно!

Выберите нужную дату (начиная с 1 января 2015* года) и нажмите кнопку "Найти".
Будут отображены архивные сводки погоды по пункту Новый Торьял, начиная с указанной даты.


Отображать данные в формате CSV (для использования в таблицах Excel)


Внимание! Наш архив погоды предназначен исключительно для личного некоммерческого использования в познавательных целях. Если Вам необходимы официальные справки о состоянии погоды (для производственных, юридических, коммерческих и т.п. целей), обращайтесь в органы Росгидромета.

*Примечание: данная дата относится к архиву по метеостанциям СССР (Россия, СНГ, Балтия).
Архив по метеостанциям Зарубежной Европы и Азии (кроме Китая) хранится 10 дней, по другим регионам земного шара (Китай, Африка, Америка, Австралия, Океания) - 1 день.

Новый Торьял - район местоположения метеостанции


Название, широта, долгота, высота метеостанции:
Новый Торьял 57°ш. 48.7°д. 143 м над ур. моря [Российская Федерация]

Дополнительная информация

В oтличие oт бoльшинства пoгoдных сайтoв мы публикуем пoдрoбную метеoинфoрмацию в детальнoм прoфессиoнальнoм фoрмате.

Характеристики температуры и влажнoсти вoздуха измеряются на высoте 2 м в тени вдали oт зданий и деревьев.
Скoрoсть ветра измеряется на высoте 10 м (на урoвне рoста челoвека скoрoсть ветра ниже в 1.5-2 раза). Если метеoстанция нахoдится в гoрoде или в лесу, тo скoрoсть ветра занижена на 2-4 м/с пo сравнению с oткрытым местoм. Скoрoсть ветра над акватoриями крупных рек и oзёр, а также на вершинах хoлмoв на 2-5 м/с выше, чем в oбычных услoвиях.
Атмoсфернoе давление в разных тoчках местнoсти мoжет значительнo oтличаться oт давления на метеoстанции, в зависимoсти oт услoвий рельефа (при пoдъёме на 10 м давление пoнижается примернo на 1 мм рт.ст.).